TimeEST,TemperatureF,Dew PointF,Humidity,Sea Level PressureIn,VisibilityMPH,Wind Direction,Wind SpeedMPH,Gust SpeedMPH,PrecipitationIn,Events,Conditions,WindDirDegrees,DateUTC
12:58 AM,39.9,28.9,65,30.01,10.0,North,8.1,-,N/A,,Clear,350,2013-02-04 05:58:00
1:58 AM,39.0,28.0,65,30.02,10.0,North,6.9,-,N/A,,Clear,350,2013-02-04 06:58:00
2:58 AM,37.0,26.1,65,30.03,10.0,North,5.8,-,N/A,,Clear,350,2013-02-04 07:58:00
3:58 AM,37.0,27.0,67,30.05,10.0,NNW,8.1,-,N/A,,Clear,340,2013-02-04 08:58:00
5:58 AM,34.0,23.0,64,30.09,10.0,North,4.6,-,N/A,,Clear,350,2013-02-04 10:58:00
6:58 AM,33.1,23.0,66,30.10,10.0,North,4.6,-,N/A,,Clear,350,2013-02-04 11:58:00
7:58 AM,37.0,23.0,57,30.12,10.0,North,6.9,-,N/A,,Clear,360,2013-02-04 12:58:00
8:58 AM,39.9,21.9,49,30.14,10.0,North,6.9,-,N/A,,Clear,350,2013-02-04 13:58:00
9:58 AM,43.0,21.0,42,30.15,10.0,North,10.4,-,N/A,,Clear,350,2013-02-04 14:58:00
10:58 AM,44.1,21.0,40,30.16,10.0,NNW,9.2,-,N/A,,Clear,330,2013-02-04 15:58:00
11:58 AM,46.0,19.9,35,30.14,10.0,NW,5.8,-,N/A,,Clear,320,2013-02-04 16:58:00
12:58 PM,46.9,19.9,34,30.12,10.0,NNW,6.9,-,N/A,,Clear,340,2013-02-04 17:58:00
1:58 PM,48.0,19.0,32,30.10,10.0,WNW,5.8,-,N/A,,Clear,300,2013-02-04 18:58:00
2:58 PM,46.9,26.1,44,30.10,10.0,SSW,6.9,-,N/A,,Clear,200,2013-02-04 19:58:00
3:58 PM,45.0,25.0,46,30.08,10.0,South,3.5,-,N/A,,Clear,170,2013-02-04 20:58:00
4:58 PM,44.1,27.0,51,30.08,10.0,SSW,6.9,-,N/A,,Clear,200,2013-02-04 21:58:00
5:58 PM,43.0,28.0,56,30.10,10.0,South,4.6,-,N/A,,Clear,190,2013-02-04 22:58:00
6:58 PM,44.1,28.9,55,30.10,10.0,South,6.9,-,N/A,,Clear,190,2013-02-04 23:58:00
7:58 PM,46.0,30.0,54,30.09,10.0,SSW,8.1,-,N/A,,Clear,200,2013-02-05 00:58:00
8:58 PM,46.0,30.9,56,30.08,10.0,SSW,8.1,-,N/A,,Clear,200,2013-02-05 01:58:00
9:58 PM,46.0,35.1,66,30.07,10.0,South,4.6,-,N/A,,Clear,190,2013-02-05 02:58:00
10:58 PM,45.0,37.0,74,30.06,10.0,SSW,5.8,-,N/A,,Clear,200,2013-02-05 03:58:00
11:58 PM,48.0,39.0,71,30.06,10.0,SW,6.9,-,N/A,,Clear,230,2013-02-05 04:58:00